Change the Weather History Date:

Thursday, November 1, 2012

  Actual Average Record
Temperature  
Mean Temperature 42 °F -  
Max Temperature 59 °F 57 °F 78 °F (1950)
Min Temperature 26 °F 41 °F 18 °F (1993)
Degree Days  
Heating Degree Days 22    
Moisture  
Dew Point 26 °F    
Average Humidity 59    
Maximum Humidity 80    
Minimum Humidity 34    
Precipitation  
Precipitation 0.00 in - - ()
Sea Level Pressure  
Sea Level Pressure 29.93 in    
Wind  
Wind Speed 7 mph (WNW)    
Max Wind Speed 15 mph    
Max Gust Speed 21 mph    
Visibility 10 miles    
Events      
Averages and records for this station are not official NWS values.
T = Trace of Precipitation, MM = Missing Value Source: NWS Daily Summary

Daily Weather History Graph

Daily Weather History Graph

Search for Another Location

Airport or City:

Trip Planner

Search our weather history database for the weather conditions in past years. The results will help you decide how hot, cold, wet, or windy it might be!

Date:

Astronomy

Nov. 01, 2012 Rise Set
Actual Time 7:34 AM CDT 5:54 PM CDT
Civil Twilight 7:05 AM CDT 6:23 PM CDT
Nautical Twilight 6:32 AM CDT 6:56 PM CDT
Astronomical Twilight 5:59 AM CDT 7:29 PM CDT
Moon 7:50 PM CDT (11/1) 10:08 AM CDT (11/1)
Length of Visible Light 11h 18m
Length of Day
10h 20m
Waning Gibbous, 93% of the Moon is Illuminated
Nov 1
Waning Gibbous
Nov 6
Last Quarter
Nov 13
New
Nov 20
First Quarter
Nov 28
Full

Hourly Weather History & Observations

Time (CDT) Temp. Windchill Dew Point Humidity Pressure Visibility Wind Dir Wind Speed Gust Speed Precip Events Conditions
12:15 AM 26.6 °F 19.1 °F 19.4 °F 74% 29.95 in 10.0 mi West 6.9 mph - N/A   Clear
12:35 AM 26.6 °F 18.2 °F 19.4 °F 74% 29.95 in 10.0 mi West 8.1 mph - N/A   Clear
12:55 AM 26.6 °F 19.1 °F 19.4 °F 74% 29.96 in 10.0 mi West 6.9 mph - N/A   Clear
1:15 AM 26.6 °F 20.0 °F 19.4 °F 74% 29.96 in 10.0 mi West 5.8 mph - N/A   Clear
1:35 AM 26.6 °F 18.2 °F 19.4 °F 74% 29.97 in 10.0 mi West 8.1 mph - N/A   Clear
1:55 AM 26.6 °F 20.0 °F 19.4 °F 74% 29.97 in 10.0 mi WSW 5.8 mph - N/A   Clear
2:15 AM 28.4 °F 24.6 °F 19.4 °F 69% 29.96 in 10.0 mi WSW 3.5 mph - N/A   Clear
2:35 AM 28.4 °F 24.6 °F 19.4 °F 69% 29.96 in 10.0 mi WSW 3.5 mph - N/A   Partly Cloudy
2:55 AM 26.6 °F 21.2 °F 19.4 °F 74% 29.96 in 10.0 mi WSW 4.6 mph - N/A   Partly Cloudy
3:15 AM 28.4 °F 24.6 °F 19.4 °F 69% 29.95 in 10.0 mi WSW 3.5 mph - N/A   Mostly Cloudy
3:35 AM 28.4 °F - 21.2 °F 74% 29.95 in 10.0 mi Calm Calm - N/A   Overcast
3:55 AM 30.2 °F 24.3 °F 21.2 °F 69% 29.94 in 10.0 mi WSW 5.8 mph - N/A   Overcast
4:15 AM 30.2 °F 23.4 °F 23.0 °F 75% 29.94 in 10.0 mi West 6.9 mph - N/A   Overcast
4:35 AM 32.0 °F 24.8 °F 23.0 °F 69% 29.95 in 10.0 mi West 8.1 mph - N/A   Overcast
4:55 AM 32.0 °F 24.8 °F 23.0 °F 69% 29.94 in 10.0 mi WNW 8.1 mph - N/A   Mostly Cloudy
5:15 AM 32.0 °F 25.6 °F 24.8 °F 75% 29.94 in 10.0 mi West 6.9 mph - N/A   Overcast
5:35 AM 32.0 °F 25.6 °F 23.0 °F 69% 29.94 in 10.0 mi West 6.9 mph - N/A   Mostly Cloudy
5:55 AM 32.0 °F 28.7 °F 23.0 °F 69% 29.94 in 10.0 mi WNW 3.5 mph - N/A   Scattered Clouds
6:15 AM 32.0 °F - 24.8 °F 75% 29.94 in 10.0 mi Calm Calm - N/A   Mostly Cloudy
6:35 AM 32.0 °F 27.5 °F 24.8 °F 75% 29.94 in 10.0 mi WNW 4.6 mph - N/A   Overcast
6:55 AM 32.0 °F 28.7 °F 24.8 °F 75% 29.94 in 10.0 mi West 3.5 mph - N/A   Mostly Cloudy
7:35 AM 30.2 °F 25.4 °F 24.8 °F 80% 29.94 in 10.0 mi West 4.6 mph - N/A   Partly Cloudy
7:55 AM 32.0 °F 26.4 °F 26.6 °F 80% 29.96 in 10.0 mi West 5.8 mph - N/A   Mostly Cloudy
8:35 AM 37.4 °F - 28.4 °F 70% 29.96 in 10.0 mi Calm Calm - N/A   Mostly Cloudy
8:55 AM 39.2 °F 35.9 °F 26.6 °F 61% 29.96 in 10.0 mi West 4.6 mph - N/A   Scattered Clouds
9:15 AM 41.0 °F 37.1 °F 28.4 °F 61% 29.96 in 10.0 mi West 5.8 mph - N/A   Partly Cloudy
9:35 AM 42.8 °F 39.3 °F 28.4 °F 57% 29.96 in 10.0 mi West 5.8 mph - N/A   Mostly Cloudy
10:15 AM 44.6 °F 41.4 °F 26.6 °F 49% 29.95 in 10.0 mi West 5.8 mph - N/A   Mostly Cloudy
10:35 AM 46.4 °F 45.2 °F 26.6 °F 46% 29.95 in 10.0 mi West 3.5 mph - N/A   Partly Cloudy
11:15 AM 51.8 °F - 26.6 °F 38% 29.95 in 10.0 mi NW 5.8 mph - N/A   Scattered Clouds
11:35 AM 51.8 °F - 26.6 °F 38% 29.94 in 10.0 mi West 6.9 mph - N/A   Scattered Clouds
11:55 AM 53.6 °F - 28.4 °F 38% 29.93 in 10.0 mi WNW 4.6 mph - N/A   Scattered Clouds
12:15 PM 53.6 °F - 26.6 °F 35% 29.92 in 10.0 mi West 6.9 mph - N/A   Mostly Cloudy
12:35 PM 55.4 °F - 28.4 °F 36% 29.92 in 10.0 mi WNW 5.8 mph - N/A   Mostly Cloudy
1:15 PM 55.4 °F - 28.4 °F 36% 29.90 in 10.0 mi West 5.8 mph - N/A   Scattered Clouds
1:35 PM 55.4 °F - 28.4 °F 36% 29.89 in 10.0 mi West 6.9 mph - N/A   Partly Cloudy
1:55 PM 57.2 °F - 30.2 °F 36% 29.88 in 10.0 mi NW 11.5 mph - N/A   Clear
2:15 PM 57.2 °F - 30.2 °F 36% 29.87 in 10.0 mi West 9.2 mph - N/A   Clear
2:35 PM 57.2 °F - 30.2 °F 36% 29.87 in 10.0 mi WNW 13.8 mph 17.3 mph N/A   Clear
2:55 PM 59.0 °F - 30.2 °F 34% 29.86 in 10.0 mi NW 10.4 mph 17.3 mph N/A   Clear
3:15 PM 59.0 °F - 30.2 °F 34% 29.86 in 10.0 mi WNW 12.7 mph 19.6 mph N/A   Clear
3:35 PM 59.0 °F - 30.2 °F 34% 29.86 in 10.0 mi NW 15.0 mph 18.4 mph N/A   Clear
3:55 PM 57.2 °F - 30.2 °F 36% 29.86 in 10.0 mi WNW 11.5 mph 17.3 mph N/A   Clear
4:15 PM 57.2 °F - 32.0 °F 38% 29.86 in 10.0 mi NW 11.5 mph 19.6 mph N/A   Clear
4:35 PM 57.2 °F - 32.0 °F 38% 29.86 in 10.0 mi NW 12.7 mph 20.7 mph N/A   Clear
5:15 PM 53.6 °F - 30.2 °F 41% 29.87 in 10.0 mi NNW 11.5 mph 17.3 mph N/A   Clear
5:35 PM 51.8 °F - 28.4 °F 41% 29.87 in 10.0 mi NNW 11.5 mph - N/A   Clear
5:55 PM 50.0 °F - 28.4 °F 43% 29.88 in 10.0 mi NNW 9.2 mph - N/A   Clear
6:15 PM 48.2 °F - 28.4 °F 46% 29.88 in 10.0 mi NNW 10.4 mph - N/A   Clear
6:35 PM 44.6 °F 38.8 °F 28.4 °F 53% 29.89 in 10.0 mi NNW 11.5 mph - N/A   Clear
6:55 PM 44.6 °F 39.2 °F 28.4 °F 53% 29.90 in 10.0 mi North 10.4 mph - N/A   Clear
7:15 PM 42.8 °F 36.6 °F 28.4 °F 57% 29.91 in 10.0 mi NNW 11.5 mph - N/A   Clear
7:35 PM 42.8 °F 37.5 °F 28.4 °F 57% 29.92 in 10.0 mi NNW 9.2 mph - N/A   Clear
7:55 PM 42.8 °F 37.5 °F 28.4 °F 57% 29.92 in 10.0 mi North 9.2 mph - N/A   Clear
8:15 PM 39.2 °F 33.0 °F 28.4 °F 65% 29.93 in 10.0 mi NNW 9.2 mph - N/A   Clear
8:35 PM 37.4 °F 30.8 °F 28.4 °F 70% 29.94 in 10.0 mi NNW 9.2 mph - N/A   Clear
8:55 PM 37.4 °F 30.8 °F 26.6 °F 65% 29.95 in 10.0 mi NNW 9.2 mph - N/A   Clear
9:15 PM 35.6 °F 28.0 °F 26.6 °F 70% 29.94 in 10.0 mi North 10.4 mph - N/A   Clear
9:35 PM 35.6 °F 28.0 °F 28.4 °F 75% 29.95 in 10.0 mi North 10.4 mph - N/A   Clear
9:55 PM 35.6 °F 28.0 °F 26.6 °F 70% 29.96 in 10.0 mi North 10.4 mph - N/A   Clear
10:15 PM 33.8 °F 25.8 °F 26.6 °F 75% 29.97 in 10.0 mi North 10.4 mph - N/A   Clear
10:35 PM 33.8 °F 25.3 °F 26.6 °F 75% 29.97 in 10.0 mi North 11.5 mph - N/A   Clear
10:55 PM 33.8 °F 25.8 °F 26.6 °F 75% 29.97 in 10.0 mi North 10.4 mph - N/A   Clear
11:15 PM 32.0 °F 23.6 °F 24.8 °F 75% 29.98 in 10.0 mi North 10.4 mph - N/A   Clear
11:35 PM 33.8 °F 25.8 °F 24.8 °F 70% 29.98 in 10.0 mi North 10.4 mph - N/A   Clear
11:55 PM 32.0 °F 24.2 °F 24.8 °F 75% 29.98 in 10.0 mi North 9.2 mph - N/A   Clear